Dania, FL

6:50 AM EST on December 07, 2016 (GMT -0500)
Fort Lauderdale-Hollywood International

Weather History for KFLL - September, 2011

Change the Weather History Date:

Wednesday, September 28, 2011

  Actual Average Record
Temperature  
Mean Temperature 83 °F 83 °F  
Max Temperature 88 °F 88 °F 94 °F (1958)
Min Temperature 77 °F 77 °F 69 °F (1969)
Degree Days  
Heating Degree Days 0 0  
Month to date heating degree days 0 0  
Since 1 July heating degree days 0 0  
Cooling Degree Days 18 18  
Month to date cooling degree days 530 510  
Year to date cooling degree days 3815 3676  
Growing Degree Days 32 (Base 50)    
Moisture  
Dew Point 74 °F    
Average Humidity 77    
Maximum Humidity 91    
Minimum Humidity 63    
Precipitation  
Precipitation T in 0.26 in 3.33 in (1943)
Month to date precipitation 6.31 8.08  
Year to date precipitation 23.34 49.15  
Snow  
Snow 0.00 in - - ()
Month to date snowfall 0.0  
Since 1 July snowfall 0.0  
Since 1 September snowfall 0.0  
Snow Depth 0.00 in    
Sea Level Pressure  
Sea Level Pressure 29.88 in    
Wind  
Wind Speed 6 mph (East)    
Max Wind Speed 16 mph    
Max Gust Speed 20 mph    
Visibility 10 miles    
Events      
T = Trace of Precipitation, MM = Missing Value Source: NWS Daily Summary

Daily Weather History Graph

Daily Weather History Graph

Search for Another Location

Airport or City:

Trip Planner

Search our weather history database for the weather conditions in past years. The results will help you decide how hot, cold, wet, or windy it might be!

Date:

Astronomy

Sep. 28, 2011 Rise Set
Actual Time 7:11 AM EDT 7:10 PM EDT
Civil Twilight 6:48 AM EDT 7:33 PM EDT
Nautical Twilight 6:21 AM EDT 8:00 PM EDT
Astronomical Twilight 5:54 AM EDT 8:27 PM EDT
Moon 8:23 AM EDT (9/28) 7:57 PM EDT (9/28)
Length of Visible Light 12h 45m
Length of Day
11h 59m
New Moon, 2% of the Moon is Illuminated
Sep 28
New Moon
Oct 3
First Quarter
Oct 11
Full
Oct 19
Last Quarter
Oct 26
New

Hourly Weather History & Observations

Time (EDT) Temp. Heat Index Dew Point Humidity Pressure Visibility Wind Dir Wind Speed Gust Speed Precip Events Conditions
12:53 AM 80.1 °F 85.1 °F 75.0 °F 85% 29.92 in 10.0 mi West 4.6 mph - N/A   Scattered Clouds
1:53 AM 78.1 °F - 75.9 °F 93% 29.89 in 10.0 mi Calm Calm - N/A   Partly Cloudy
2:53 AM 78.1 °F - 75.0 °F 90% 29.87 in 10.0 mi Calm Calm - N/A   Partly Cloudy
3:53 AM 78.1 °F - 75.9 °F 93% 29.86 in 10.0 mi Calm Calm - N/A   Scattered Clouds
4:53 AM 78.1 °F - 75.0 °F 90% 29.86 in 10.0 mi NW 3.5 mph - N/A   Partly Cloudy
5:53 AM 78.1 °F - 75.0 °F 90% 29.86 in 10.0 mi Calm Calm - N/A   Partly Cloudy
6:53 AM 78.1 °F - 75.0 °F 90% 29.89 in 10.0 mi NNW 5.8 mph - N/A   Partly Cloudy
7:53 AM 78.1 °F - 75.0 °F 90% 29.90 in 10.0 mi North 3.5 mph - N/A   Scattered Clouds
8:53 AM 81.0 °F 86.7 °F 75.0 °F 82% 29.91 in 10.0 mi North 4.6 mph - N/A   Partly Cloudy
9:53 AM 86.0 °F 95.1 °F 75.0 °F 70% 29.92 in 10.0 mi Calm Calm - N/A   Partly Cloudy
10:53 AM 84.0 °F 90.2 °F 73.0 °F 69% 29.92 in 10.0 mi SE 4.6 mph - N/A   Partly Cloudy
11:53 AM 87.1 °F 94.5 °F 73.0 °F 63% 29.92 in 10.0 mi East 10.4 mph - N/A   Scattered Clouds
12:53 PM 84.9 °F 93.3 °F 75.0 °F 72% 29.91 in 10.0 mi SE 8.1 mph - N/A   Scattered Clouds
1:53 PM 87.1 °F 94.5 °F 73.0 °F 63% 29.88 in 10.0 mi ESE 9.2 mph - N/A   Scattered Clouds
2:53 PM 87.1 °F 94.5 °F 73.0 °F 63% 29.87 in 10.0 mi ESE 11.5 mph - N/A   Scattered Clouds
3:53 PM 84.9 °F 92.1 °F 73.9 °F 69% 29.86 in 10.0 mi ESE 10.4 mph - N/A   Partly Cloudy
4:53 PM 86.0 °F 93.8 °F 73.9 °F 67% 29.85 in 10.0 mi ESE 11.5 mph - N/A   Partly Cloudy
5:53 PM 84.9 °F 92.1 °F 73.9 °F 69% 29.85 in 10.0 mi ESE 8.1 mph - N/A   Partly Cloudy
6:53 PM 84.0 °F 91.2 °F 73.9 °F 72% 29.85 in 10.0 mi ESE 8.1 mph - N/A   Partly Cloudy
7:53 PM 82.9 °F 88.8 °F 73.0 °F 72% 29.85 in 10.0 mi East 10.4 mph - N/A   Partly Cloudy
8:53 PM 82.9 °F 89.4 °F 73.9 °F 74% 29.86 in 10.0 mi SE 4.6 mph - N/A   Partly Cloudy
9:53 PM 82.9 °F 88.8 °F 73.0 °F 72% 29.86 in 10.0 mi ESE 6.9 mph - N/A   Partly Cloudy
10:53 PM 82.9 °F 90.2 °F 75.0 °F 77% 29.89 in 10.0 mi ESE 8.1 mph - N/A   Partly Cloudy
11:53 PM 82.9 °F 88.8 °F 73.0 °F 72% 29.89 in 10.0 mi ESE 8.1 mph - N/A   Partly Cloudy